STARLINK-1130

decayed
NORAD ID: 44932 Int'l Des: 2020-001 Owner: SPXS Country: US Constellation: starlink
LEOCIRCULAR
Gruppe

Über STARLINK-1130

Beschreibung wird geladen...

Höhenverlauf

Altitude vs Time

uPlot chart will show altitude changes over time

Zweizeiliger Elementsatz

1 44932U 20001U 25201.41009700 .14655795 12573-4 24213-3 0 9995
2 44932 53.0225 196.8709 0004882 264.2908 267.1656 16.47864835307638
Epoch: 20. Juli 2025 • Age: 1376 hours

Aktueller Status

Position data unavailable
Startdatum 7. Jan. 2020
Alter 5.6 years
Verglühungsdatum 20. Juli 2025
Typ internet

Technische Details

Klassifizierung Payload
Masse 260.00 kg
Trockenmasse 248.00 kg
Gesamtmasse 260.00 kg
Länge 0.20 m
Durchmesser 2.80 m
Spannweite 9.00 m
Form Box + pan
Hersteller SPXS
Bus-Typ Starlink
Phasenstatus Unknown Transfer Status
Besitzer/Staat SPXS/US

Große Konstellationen

Loading constellations...